TimeCST,TemperatureF,Dew PointF,Humidity,Sea Level PressureIn,VisibilityMPH,Wind Direction,Wind SpeedMPH,Gust SpeedMPH,PrecipitationIn,Events,Conditions,WindDirDegrees,DateUTC
12:53 AM,24.8,21.2,86,30.48,10.0,NNE,4.6,-,N/A,,Overcast,20,2014-02-06 06:53:00
1:50 AM,23.0,19.4,86,30.48,10.0,NNE,5.8,-,N/A,,Overcast,20,2014-02-06 07:50:00
2:15 AM,23.0,19.4,86,30.47,10.0,North,6.9,-,N/A,,Overcast,10,2014-02-06 08:15:00
2:35 AM,24.8,19.4,80,30.47,10.0,North,5.8,-,N/A,,Overcast,360,2014-02-06 08:35:00
2:55 AM,23.0,19.4,86,30.48,10.0,North,5.8,-,N/A,,Overcast,360,2014-02-06 08:55:00
3:15 AM,23.0,19.4,86,30.48,10.0,North,6.9,-,N/A,,Overcast,350,2014-02-06 09:15:00
3:35 AM,23.0,19.4,86,30.48,10.0,North,6.9,-,N/A,,Overcast,360,2014-02-06 09:35:00
3:55 AM,23.0,19.4,86,30.48,10.0,North,6.9,-,N/A,,Overcast,360,2014-02-06 09:55:00
4:15 AM,21.2,19.4,93,30.47,10.0,North,5.8,-,N/A,,Overcast,10,2014-02-06 10:15:00
4:35 AM,23.0,19.4,86,30.48,10.0,North,6.9,-,N/A,,Overcast,360,2014-02-06 10:35:00
4:55 AM,21.2,19.4,93,30.49,10.0,North,5.8,-,N/A,,Overcast,360,2014-02-06 10:55:00
5:30 AM,21.2,17.6,86,30.51,10.0,North,8.1,-,N/A,,Overcast,10,2014-02-06 11:30:00
5:50 AM,21.2,17.6,86,30.51,10.0,North,6.9,-,N/A,,Overcast,360,2014-02-06 11:50:00
6:50 AM,21.2,17.6,86,30.53,10.0,North,5.8,-,N/A,,Overcast,350,2014-02-06 12:50:00
7:50 AM,19.4,17.6,93,30.56,10.0,North,8.1,-,N/A,,Overcast,360,2014-02-06 13:50:00
8:50 AM,-9999,-9999,N/A,30.56,10.0,North,8.1,-,N/A,,Overcast,10,2014-02-06 14:50:00
8:52 AM,19.4,17.6,93,30.56,10.0,North,8.1,-,N/A,,Overcast,10,2014-02-06 14:52:00
9:50 AM,21.2,15.8,80,30.57,10.0,North,8.1,-,N/A,,Overcast,350,2014-02-06 15:50:00
10:50 AM,21.2,17.6,86,30.56,10.0,North,5.8,-,N/A,,Overcast,360,2014-02-06 16:50:00
11:50 AM,21.2,17.6,86,30.53,10.0,North,8.1,-,N/A,,Overcast,350,2014-02-06 17:50:00
12:50 PM,21.2,17.6,86,30.50,10.0,North,5.8,-,N/A,,Overcast,360,2014-02-06 18:50:00
1:50 PM,23.0,17.6,80,30.50,10.0,North,5.8,-,N/A,,Overcast,350,2014-02-06 19:50:00
2:50 PM,23.0,19.4,86,30.49,10.0,North,5.8,-,N/A,,Overcast,350,2014-02-06 20:50:00
3:50 PM,21.2,17.6,86,30.50,10.0,NNW,4.6,-,N/A,,Overcast,330,2014-02-06 21:50:00
4:03 PM,21.2,17.6,86,30.50,8.0,NNW,4.6,-,N/A,Snow,Light Snow,330,2014-02-06 22:03:00
4:50 PM,21.2,17.6,86,30.50,8.0,North,5.8,-,N/A,Snow,Light Snow,350,2014-02-06 22:50:00
5:14 PM,21.2,17.6,86,30.50,10.0,North,6.9,-,N/A,,Mostly Cloudy,350,2014-02-06 23:14:00
5:50 PM,19.4,17.6,93,30.50,10.0,North,6.9,-,N/A,,Mostly Cloudy,350,2014-02-06 23:50:00
6:55 PM,19.4,15.8,86,30.49,10.0,North,5.8,-,N/A,,Mostly Cloudy,10,2014-02-07 00:55:00
7:55 PM,21.2,15.8,80,30.47,10.0,NNE,5.8,-,N/A,,Mostly Cloudy,20,2014-02-07 01:55:00
8:54 PM,19.4,15.8,86,30.48,10.0,North,5.8,-,N/A,,Unknown,350,2014-02-07 02:54:00
9:50 PM,19.4,15.8,86,30.48,10.0,Variable,5.8,-,N/A,,Unknown,0,2014-02-07 03:50:00
10:50 PM,17.6,15.8,93,30.48,10.0,Calm,Calm,-,N/A,,Unknown,0,2014-02-07 04:50:00
11:55 PM,17.6,15.8,93,30.47,10.0,Calm,Calm,-,N/A,,Unknown,0,2014-02-07 05:55:00